Location: Zagreb
(45.8000°N, 16.0000°E)
Time: 18:28:01
(UTC+02:00)

A-11 Canister half - Pass Details

Date: 17 August 2022
Orbit: 1524 x 1684 km, 47.3° (Epoch: 05 October)

Event Time Altitude Azimuth Distance (km) Brightness Sun altitude
Rises 10:38:53 0° 292° (WNW) 4,943 11.3 46.0°
Reaches altitude 10° 10:42:07 10° 289° (WNW) 3,949 10.9 46.4°
Maximum altitude 10:51:58 59° 214° (SSW) 1,879 10.3 47.8°
Drops below altitude 10° 11:01:35 10° 138° (SE) 3,854 12.0 49.1°
Sets 11:04:43 0° 134° (SE) 4,817 12.3 49.4°
